Find Starlink 4108

NORAD ID: 52834 Int'l Des: 2022-062 Owner: SPXS Country: US Constellation: starlink operational
LEOCIRCULAR

当前视图

正在加载3D地球...

About Starlink 4108

Starlink 4108 (NORAD 52834) is a starlink constellation satellite (v1.5) launched Jun 17, 2022 by SPXS of US. It operates in LEO, CIRCULAR orbit with a mass of 297.00 kg.

关于 Starlink 4108

正在加载描述...

即将过境

Passes for default location (London). Set your location on the main map for personalized predictions.

高度历史

Loading altitude history...

两行轨道根数

1 52834U 22062E 26176.53373417 .00000469 00000-0 47554-4 0 9997
2 52834 53.1585 269.8413 0000999 87.5011 272.6095 15.08840468222060
Epoch: Jun 25, 2026 • Age: 7 hours

当前状态

高度 543.4 km
速度 7.60 km/s
星下点 43.23°N, 107.71°E
发射日期 Jun 17, 2022
运行时间 4 years
类型 internet

技术详情

分类 Payload
质量 297.00 kg
干质量 275.00 kg
总质量 297.00 kg
长度 0.20 m
直径 2.80 m
跨度 9.00 m
形状 Box + pan
制造商 SPXS
平台类型 Starlink
阶段状态 In Orbit
所有者/国家 SPXS/US

Most Searched